Location: Newark
(31.0436°N, 112.2008°E)
Time: 23:39:17
(UTC+00:00)

Envisat - Visible Passes

Search period start: 18 January 2020 00:00
Search period end: 28 January 2020 00:00
Orbit: 764 x 766 km, 98.1° (Epoch: 18 January)

Date Brightness Start Highest point End Pass type
(mag) Time Alt. Az. Time Alt. Az. Time Alt. Az.
18 Jan 6.1 11:46:43 10° SW 11:49:27 15° W 11:52:12 10° WNW visible
18 Jan 5.4 22:20:14 10° NE 22:24:26 26° E 22:28:35 10° SSE visible
19 Jan 4.7 11:07:51 10° SSW 11:12:28 36° W 11:17:08 10° NNW visible
20 Jan 3.0 10:30:36 10° SSE 10:35:40 90° WSW 10:40:46 10° NNW visible
20 Jan 4.2 22:45:06 10° NNE 22:50:01 48° E 22:54:53 10° S visible
21 Jan 5.8 11:34:31 10° SW 11:38:05 19° W 11:41:40 10° NW visible
21 Jan 5.9 22:09:26 10° NE 22:13:05 20° E 22:16:42 10° SE visible
22 Jan 4.1 10:56:18 10° S 11:01:10 47° W 11:06:03 10° NNW visible
23 Jan 3.0 10:19:22 10° SSE 10:24:24 70° ENE 10:29:28 10° N visible
23 Jan 4.7 22:34:00 10° NNE 22:38:41 37° E 22:43:20 10° SSE visible
24 Jan 5.4 11:22:36 10° SSW 11:26:44 25° W 11:30:52 10° NW visible
24 Jan 6.1 21:58:53 10° ENE 22:01:43 15° E 22:04:32 10° SE visible
25 Jan 3.6 10:44:51 10° S 10:49:51 62° W 10:54:53 10° NNW visible
25 Jan 3.4 22:59:08 10° NNE 23:04:13 71° ESE 23:09:16 10° S visible
26 Jan 6.2 11:50:07 10° WSW 11:52:23 13° W 11:54:41 10° WNW visible
26 Jan 5.3 22:23:00 10° NE 22:27:21 28° E 22:31:41 10° SSE visible
27 Jan 4.9 11:10:53 10° SSW 11:15:23 32° W 11:19:56 10° NW visible
27 Jan 6.4 21:48:57 10° ENE 21:50:20 11° E 21:51:43 10° ESE visible
